When you browse on this site, cookies collect data to enhance your experience and personalize the content and advertising you see.
Visit our Privacy Policy to learn more. By continuing to use the site, you agree to this use of cookies and data.
  • In Czech Republic
  • List of Countries
  • For 7 days
  • Water Temperature
  • Satellite Maps
  • Weather Map
  • Weather Widgets
  • user-avatar
    Login

    Hourly Weather Bogatyr

    Today, 21 November, Wednesday

    Time Temperature Precipitation Wind Pressure Humidity
    00:00 -4°C° 0 mm 1 mps 757 mmHg 92%
    01:00 -4°C° 0 mm 1 mps 757 mmHg 92%
    02:00 -4°C° 0 mm 1 mps 757 mmHg 92%
    03:00 -4°C° 0 mm 1 mps 756 mmHg 92%
    04:00 -4°C° 0 mm 1 mps 756 mmHg 92%
    05:00 -4°C° 0 mm 1 mps 756 mmHg 92%
    06:00 -4°C° 0 mm 1 mps 756 mmHg 92%
    07:00 -4°C° 0 mm 1 mps 756 mmHg 91%
    08:00 -4°C° 0 mm 1 mps 756 mmHg 91%
    09:00 -3°C° 0 mm 1 mps 756 mmHg 89%
    10:00 -4°C° 0 mm 2 mps 756 mmHg 86%
    11:00 -3°C° 0 mm 2 mps 756 mmHg 84%
    12:00 -3°C° 0 mm 2 mps 756 mmHg 84%
    13:00 -3°C° 0 mm 2 mps 756 mmHg 84%
    14:00 -2°C° 0 mm 2 mps 756 mmHg 84%
    15:00 -3°C° 0 mm 2 mps 756 mmHg 85%
    16:00 -3°C° 0 mm 2 mps 756 mmHg 86%
    17:00 -3°C° 0 mm 2 mps 756 mmHg 87%
    18:00 -3°C° 0 mm 2 mps 756 mmHg 86%
    19:00 -3°C° 0 mm 2 mps 756 mmHg 86%
    20:00 -3°C° 0 mm 2 mps 756 mmHg 85%
    21:00 -3°C° 0 mm 2 mps 756 mmHg 86%
    22:00 -3°C° 0 mm 2 mps 756 mmHg 86%
    23:00 -1°C° 0 mm 1 mps 756 mmHg 87%

    Tomorrow, 22 November, Thursday

    Time Temperature Precipitation Wind Pressure Humidity
    00:00 -1°C° 0 mm 1 mps 756 mmHg 87%
    01:00 -3°C° 0 mm 2 mps 756 mmHg 88%
    02:00 -3°C° 0 mm 2 mps 755 mmHg 88%
    03:00 -4°C° 0 mm 2 mps 755 mmHg 90%
    04:00 -4°C° 0 mm 2 mps 755 mmHg 91%
    05:00 -4°C° 0 mm 2 mps 755 mmHg 92%
    06:00 -5°C° 0 mm 2 mps 755 mmHg 93%
    07:00 -5°C° 0 mm 2 mps 754 mmHg 94%
    08:00 -5°C° 0 mm 2 mps 754 mmHg 95%
    09:00 -5°C° 0 mm 3 mps 754 mmHg 92%
    10:00 -4°C° 0 mm 3 mps 754 mmHg 89%
    11:00 -2°C° 0 mm 3 mps 754 mmHg 86%
    12:00 -3°C° 0 mm 4 mps 754 mmHg 84%
    13:00 -3°C° 0 mm 4 mps 754 mmHg 83%
    14:00 -3°C° 0 mm 4 mps 753 mmHg 81%
    15:00 -3°C° 0 mm 4 mps 753 mmHg 84%
    16:00 -4°C° 0 mm 4 mps 753 mmHg 86%
    17:00 -5°C° 0 mm 4 mps 753 mmHg 89%
    18:00 -5°C° 0 mm 4 mps 753 mmHg 90%
    19:00 -5°C° 0 mm 4 mps 753 mmHg 91%
    20:00 -5°C° 0 mm 4 mps 753 mmHg 92%
    21:00 -4°C° 0 mm 4 mps 753 mmHg 90%
    22:00 -4°C° 0 mm 4 mps 753 mmHg 89%
    23:00 -3°C° 0 mm 4 mps 753 mmHg 88%

    Day after tomorrow, 23 November, Friday

    Time Temperature Precipitation Wind Pressure Humidity
    00:00 -2°C° 0 mm 3 mps 754 mmHg 89%
    01:00 -2°C° 0 mm 3 mps 754 mmHg 89%
    02:00 -2°C° 0 mm 2 mps 754 mmHg 90%
    03:00 -2°C° 0 mm 2 mps 754 mmHg 90%
    04:00 -2°C° 0 mm 2 mps 754 mmHg 91%
    05:00 -2°C° 0 mm 2 mps 754 mmHg 92%
    06:00 -2°C° 0 mm 2 mps 755 mmHg 92%
    07:00 0°C° 0 mm 1 mps 755 mmHg 92%
    08:00 0°C° 0 mm 1 mps 755 mmHg 93%
    09:00 +1°C° 0 mm 1 mps 755 mmHg 91%
    10:00 +1°C° 0 mm 1 mps 756 mmHg 89%
    11:00 +1°C° 0 mm 1 mps 756 mmHg 88%
    12:00 +1°C° 0 mm 1 mps 756 mmHg 86%
    13:00 +1°C° 0 mm 1 mps 756 mmHg 85%
    14:00 +2°C° 0 mm 1 mps 756 mmHg 83%
    15:00 +1°C° 0 mm 1 mps 756 mmHg 85%
    16:00 +1°C° 0 mm 1 mps 755 mmHg 86%
    17:00 -2°C° 0 mm 2 mps 755 mmHg 88%
    18:00 -2°C° 0 mm 2 mps 755 mmHg 89%
    19:00 -3°C° 0 mm 2 mps 755 mmHg 91%
    20:00 -3°C° 0 mm 2 mps 754 mmHg 92%
    21:00 -4°C° 0 mm 2 mps 754 mmHg 92%
    22:00 -5°C° 0 mm 3 mps 754 mmHg 92%
    23:00 -6°C° 0 mm 3 mps 754 mmHg 92%

    24 November, Saturday

    Time Temperature Precipitation Wind Pressure Humidity
    00:00 -6°C° 0 mm 3 mps 753 mmHg 92%
    01:00 -6°C° 0 mm 3 mps 753 mmHg 92%
    02:00 -6°C° 0 mm 3 mps 752 mmHg 92%
    03:00 -6°C° 0 mm 3 mps 752 mmHg 92%
    04:00 -7°C° 0 mm 3 mps 751 mmHg 91%
    05:00 -7°C° 0 mm 3 mps 751 mmHg 91%
    06:00 -7°C° 0 mm 3 mps 750 mmHg 90%
    07:00 -6°C° 0 mm 3 mps 750 mmHg 88%
    08:00 -6°C° 0 mm 3 mps 749 mmHg 86%
    09:00 -5°C° 0 mm 4 mps 749 mmHg 85%
    10:00 -5°C° 0 mm 4 mps 749 mmHg 83%
    11:00 -4°C° 0 mm 4 mps 748 mmHg 81%
    12:00 -3°C° 0 mm 4 mps 748 mmHg 82%
    13:00 -3°C° 0 mm 4 mps 747 mmHg 83%
    14:00 -2°C° 0 mm 3 mps 747 mmHg 84%
    15:00 -2°C° 0 mm 3 mps 747 mmHg 86%
    16:00 -2°C° 0 mm 3 mps 747 mmHg 89%
    17:00 -4°C° 0 mm 3 mps 746 mmHg 91%
    18:00 -2°C° 0 mm 3 mps 746 mmHg 92%
    19:00 -2°C° 0 mm 3 mps 746 mmHg 93%
    20:00 -2°C° 0 mm 2 mps 746 mmHg 93%
    21:00 -1°C° 0 mm 2 mps 746 mmHg 94%
    22:00 -1°C° 0 mm 2 mps 746 mmHg 95%
    23:00 -1°C° 0 mm 2 mps 746 mmHg 96%

    25 November, Sunday

    Time Temperature Precipitation Wind Pressure Humidity
    00:00 +1°C° 0.1 mm 1 mps 745 mmHg 96%
    01:00 +1°C° 0.1 mm 1 mps 745 mmHg 96%
    02:00 +1°C° 0.1 mm 1 mps 745 mmHg 97%
    03:00 +1°C° 0.3 mm 1 mps 745 mmHg 97%
    04:00 +1°C° 0.3 mm 1 mps 744 mmHg 97%
    05:00 +1°C° 0.3 mm 1 mps 744 mmHg 97%
    06:00 +1°C° 0.4 mm 1 mps 744 mmHg 97%
    07:00 0°C° 0.4 mm 0 mps 743 mmHg 97%
    08:00 0°C° 0.4 mm 0 mps 743 mmHg 97%
    09:00 0°C° 0.2 mm 0 mps 743 mmHg 97%
    10:00 0°C° 0.2 mm 0 mps 743 mmHg 97%
    11:00 +1°C° 0.2 mm 0 mps 743 mmHg 97%
    12:00 +1°C° 0.1 mm 0 mps 743 mmHg 97%
    13:00 +2°C° 0.1 mm 1 mps 742 mmHg 97%
    14:00 +2°C° 0.1 mm 1 mps 742 mmHg 97%
    15:00 +2°C° 0.1 mm 1 mps 742 mmHg 97%
    16:00 +1°C° 0.1 mm 1 mps 742 mmHg 97%
    17:00 +1°C° 0.1 mm 1 mps 742 mmHg 97%
    18:00 -1°C° 0.1 mm 2 mps 742 mmHg 96%
    19:00 -1°C° 0.1 mm 2 mps 742 mmHg 96%
    20:00 -1°C° 0.1 mm 2 mps 742 mmHg 96%
    21:00 -1°C° 0.1 mm 3 mps 742 mmHg 95%
    22:00 -2°C° 0.1 mm 3 mps 742 mmHg 94%
    23:00 -3°C° 0.1 mm 4 mps 741 mmHg 93%

    26 November, Monday

    Time Temperature Precipitation Wind Pressure Humidity
    00:00 -3°C° 0.1 mm 4 mps 741 mmHg 92%
    01:00 -4°C° 0.1 mm 4 mps 741 mmHg 91%
    02:00 -5°C° 0.1 mm 5 mps 741 mmHg 90%
    03:00 -5°C° 0 mm 4 mps 741 mmHg 91%
    04:00 -7°C° 0 mm 4 mps 741 mmHg 91%
    05:00 -7°C° 0 mm 4 mps 741 mmHg 91%
    06:00 -7°C° 0 mm 4 mps 742 mmHg 90%
    07:00 -7°C° 0 mm 4 mps 742 mmHg 89%
    08:00 -7°C° 0 mm 4 mps 742 mmHg 87%
    09:00 -5°C° 0.1 mm 4 mps 742 mmHg 86%
    10:00 -5°C° 0.1 mm 4 mps 742 mmHg 86%
    11:00 -6°C° 0.1 mm 5 mps 742 mmHg 85%
    12:00 -5°C° 0.1 mm 4 mps 742 mmHg 84%
    13:00 -5°C° 0.1 mm 4 mps 743 mmHg 83%
    14:00 -5°C° 0.1 mm 4 mps 743 mmHg 82%
    15:00 -7°C° 0 mm 4 mps 743 mmHg 83%
    16:00 -7°C° 0 mm 4 mps 743 mmHg 84%
    17:00 -8°C° 0 mm 4 mps 743 mmHg 85%
    18:00 -8°C° 0 mm 4 mps 743 mmHg 84%
    19:00 -8°C° 0 mm 5 mps 743 mmHg 84%
    20:00 -8°C° 0 mm 5 mps 743 mmHg 83%
    21:00 -8°C° 0 mm 5 mps 744 mmHg 84%
    22:00 -8°C° 0 mm 5 mps 744 mmHg 85%
    23:00 -8°C° 0 mm 4 mps 744 mmHg 86%
    Show more